Hourly Data Report for June 23, 2021

OTTAWA INTL A
ONTARIO
Current Station Operator: NAVCAN

45°19'00.000" N
75°40'00.000" W
114.90 m
6106001
71628
YOW

Download Data

Hourly Data (June 2021)
Hourly Data Report for June 23, 2021
TIME
LST
Temp Definition
°C
Dew Point Definition
°C
Rel Hum Definition
%
Precip. Amount Definition
mm

Wind Dir Definition
10's deg

Wind Spd Definition
km/h
Visibility Definition
km
Stn Press Definition
kPa
Hmdx Definition


Wind Chill Definition


Weather Definition


00:00 8.7 3.4 69   25 9 24.1 100.09     LegendNANA
01:00 7.6 5.7 88   24 6 24.1 100.09     Mainly Clear
02:00 5.9 4.5 91   24 9 24.1 100.13     LegendNANA
03:00 7.3 4.9 85   27 5 24.1 100.19     LegendNANA
04:00 6.4 4.7 89   24 9 24.1 100.27     Mostly Cloudy
05:00 8.1 5.9 86   25 7 24.1 100.36     LegendNANA
06:00 10.5 7.7 82   26 12 24.1 100.45     LegendNANA
07:00 13.3 7.2 66   27 11 24.1 100.52     Clear
08:00 14.7 6.9 59   28 5 24.1 100.59     LegendNANA
09:00 16.6 5.4 47   27 9 24.1 100.63     LegendNANA
10:00 18.1 5.4 43   25 14 24.1 100.66     Mostly Cloudy
11:00 17.9 5.1 43   19 17 24.1 100.67     LegendNANA
12:00 18.4 4.0 38   25 15 24.1 100.65     LegendNANA
13:00 19.7 3.5 34   25 18 24.1 100.66     Mostly Cloudy
14:00 20.6 4.9 35   17 17 24.1 100.66     LegendNANA
15:00 20.8 5.8 37   23 19 24.1 100.67     LegendNANA
16:00 21.6 6.7 38   22 15 24.1 100.67     Mostly Cloudy
17:00 20.8 6.0 38   21 15 24.1 100.67     LegendNANA
18:00 21.6 6.1 36   21 14 24.1 100.69     LegendNANA
19:00 18.8 8.3 50   18 14 24.1 100.74     Mostly Cloudy
20:00 17.2 7.9 54   18 13 24.1 100.81     LegendNANA
21:00 16.1 7.3 56   18 14 24.1 100.87     LegendNANA
22:00 14.9 7.5 61   19 14 24.1 100.89     Mostly Cloudy
23:00 14.4 7.3 62   18 13 24.1 100.91     LegendNANA

Notes on Data Quality.

Legend

  • E = Estimated
  • M = Missing
  • NA = Not Available*
  • [empty] = Indicates an unobserved value
Date modified: